• In Russia
  • List of Countries
  • For 7 days
  • Water Temperature
  • Satellite Maps
  • Weather Map
  • Weather Widgets
  • user-avatar
    Login

    Hourly Weather Louangphabang

    Today, 18 August, Saturday

    Time Temperature Precipitation Wind Pressure Humidity
    00:00 +24°C° 0.5 mm 1 mps 690 mmHg 99%
    01:00 +24°C° 0 mm 1 mps 690 mmHg 99%
    02:00 +23°C° 0.7 mm 1 mps 690 mmHg 99%
    03:00 +23°C° 0.7 mm 1 mps 690 mmHg 99%
    04:00 +23°C° 0.7 mm 1 mps 690 mmHg 99%
    05:00 +23°C° 0.9 mm 1 mps 690 mmHg 99%
    06:00 +21°C° 0.9 mm 0 mps 691 mmHg 99%
    07:00 +22°C° 0 mm 0 mps 691 mmHg 99%
    08:00 +23°C° 0.7 mm 0 mps 691 mmHg 97%
    09:00 +23°C° 0.7 mm 0 mps 691 mmHg 94%
    10:00 +24°C° 0.7 mm 0 mps 692 mmHg 92%
    11:00 +25°C° 1 mm 0 mps 692 mmHg 92%
    12:00 +25°C° 1 mm 0 mps 691 mmHg 93%
    13:00 +26°C° 0 mm 0 mps 691 mmHg 92%
    14:00 +26°C° 2.1 mm 0 mps 691 mmHg 93%
    15:00 +26°C° 2.1 mm 0 mps 691 mmHg 93%
    16:00 +26°C° 2.1 mm 0 mps 690 mmHg 94%
    17:00 +25°C° 1.9 mm 0 mps 690 mmHg 95%
    18:00 +24°C° 1.9 mm 0 mps 690 mmHg 96%
    19:00 +23°C° 1.9 mm 0 mps 690 mmHg 97%
    20:00 +22°C° 2.6 mm 0 mps 691 mmHg 97%
    21:00 +22°C° 2.6 mm 0 mps 692 mmHg 97%
    22:00 +22°C° 2.6 mm 0 mps 692 mmHg 97%
    23:00 +22°C° 3.1 mm 0 mps 692 mmHg 98%

    Tomorrow, 19 August, Sunday

    Time Temperature Precipitation Wind Pressure Humidity
    00:00 +22°C° 3.1 mm 0 mps 693 mmHg 98%
    01:00 +22°C° 3.1 mm 0 mps 693 mmHg 98%
    02:00 +22°C° 2.3 mm 0 mps 693 mmHg 99%
    03:00 +21°C° 2.3 mm 0 mps 692 mmHg 99%
    04:00 +21°C° 2.3 mm 0 mps 692 mmHg 99%
    05:00 +21°C° 1 mm 0 mps 693 mmHg 99%
    06:00 +22°C° 1 mm 0 mps 693 mmHg 99%
    07:00 +22°C° 1 mm 0 mps 693 mmHg 99%
    08:00 +23°C° 0.4 mm 0 mps 694 mmHg 96%
    09:00 +24°C° 0.4 mm 0 mps 694 mmHg 93%
    10:00 +25°C° 0.4 mm 0 mps 694 mmHg 90%
    11:00 +26°C° 1.1 mm 0 mps 694 mmHg 89%
    12:00 +27°C° 1.1 mm 0 mps 694 mmHg 88%
    13:00 +27°C° 1.1 mm 0 mps 693 mmHg 88%
    14:00 +27°C° 1.5 mm 0 mps 693 mmHg 89%
    15:00 +26°C° 1.5 mm 0 mps 692 mmHg 90%
    16:00 +26°C° 1.5 mm 0 mps 691 mmHg 91%
    17:00 +25°C° 0.7 mm 0 mps 692 mmHg 94%
    18:00 +24°C° 0.7 mm 0 mps 692 mmHg 96%
    19:00 +23°C° 0.7 mm 0 mps 692 mmHg 98%
    20:00 +23°C° 0.7 mm 0 mps 693 mmHg 98%
    21:00 +22°C° 0.7 mm 0 mps 693 mmHg 98%
    22:00 +22°C° 0.7 mm 0 mps 694 mmHg 98%
    23:00 +22°C° 1.3 mm 0 mps 694 mmHg 98%

    Day after tomorrow, 20 August, Monday

    Time Temperature Precipitation Wind Pressure Humidity
    00:00 +22°C° 1.3 mm 0 mps 694 mmHg 99%
    01:00 +22°C° 1.3 mm 0 mps 694 mmHg 99%
    02:00 +21°C° 0.7 mm 0 mps 694 mmHg 99%
    03:00 +21°C° 0.7 mm 0 mps 694 mmHg 99%
    04:00 +21°C° 0.7 mm 0 mps 693 mmHg 99%
    05:00 +21°C° 0.7 mm 0 mps 694 mmHg 99%
    06:00 +21°C° 0.7 mm 0 mps 694 mmHg 99%
    07:00 +21°C° 0.7 mm 0 mps 694 mmHg 99%
    08:00 +22°C° 0.6 mm 0 mps 695 mmHg 97%
    09:00 +23°C° 0.6 mm 0 mps 695 mmHg 94%
    10:00 +24°C° 0.6 mm 0 mps 696 mmHg 92%
    11:00 +25°C° 0.4 mm 0 mps 695 mmHg 88%
    12:00 +26°C° 0.4 mm 0 mps 695 mmHg 84%
    13:00 +26°C° 0.4 mm 0 mps 695 mmHg 80%
    14:00 +29°C° 0.2 mm 1 mps 694 mmHg 79%
    15:00 +29°C° 0.2 mm 1 mps 693 mmHg 77%
    16:00 +29°C° 0.2 mm 1 mps 693 mmHg 75%
    17:00 +28°C° 0.1 mm 1 mps 693 mmHg 80%
    18:00 +27°C° 0.1 mm 1 mps 693 mmHg 86%
    19:00 +23°C° 0.1 mm 0 mps 693 mmHg 92%
    20:00 +25°C° 0.8 mm 1 mps 693 mmHg 94%
    21:00 +25°C° 0.8 mm 1 mps 694 mmHg 95%
    22:00 +24°C° 0.8 mm 1 mps 694 mmHg 97%
    23:00 +24°C° 1 mm 1 mps 694 mmHg 98%

    21 August, Tuesday

    Time Temperature Precipitation Wind Pressure Humidity
    00:00 +24°C° 1 mm 1 mps 694 mmHg 98%
    01:00 +23°C° 1 mm 1 mps 693 mmHg 99%
    02:00 +21°C° 0.3 mm 0 mps 693 mmHg 99%
    03:00 +21°C° 0.3 mm 0 mps 693 mmHg 99%
    04:00 +21°C° 0.3 mm 0 mps 692 mmHg 98%
    05:00 +21°C° 0 mm 0 mps 693 mmHg 98%
    06:00 +22°C° 0 mm 0 mps 693 mmHg 97%
    07:00 +22°C° 0 mm 0 mps 693 mmHg 97%
    08:00 +24°C° 0.2 mm 0 mps 694 mmHg 88%
    09:00 +27°C° 0.2 mm 1 mps 694 mmHg 80%
    10:00 +29°C° 0.2 mm 1 mps 695 mmHg 72%
    11:00 +29°C° 0.8 mm 1 mps 694 mmHg 76%
    12:00 +30°C° 0.8 mm 1 mps 693 mmHg 79%
    13:00 +30°C° 0.8 mm 1 mps 693 mmHg 83%
    14:00 +30°C° 1.5 mm 1 mps 692 mmHg 85%
    15:00 +29°C° 1.5 mm 1 mps 691 mmHg 87%
    16:00 +29°C° 1.5 mm 1 mps 691 mmHg 89%
    17:00 +28°C° 0.6 mm 1 mps 691 mmHg 91%
    18:00 +26°C° 0.6 mm 1 mps 691 mmHg 93%
    19:00 +23°C° 0.6 mm 0 mps 691 mmHg 95%
    20:00 +25°C° 0.3 mm 1 mps 692 mmHg 96%
    21:00 +25°C° 0.3 mm 1 mps 693 mmHg 97%
    22:00 +24°C° 0.3 mm 1 mps 693 mmHg 97%
    23:00 +24°C° 0.4 mm 1 mps 693 mmHg 98%

    22 August, Wednesday

    Time Temperature Precipitation Wind Pressure Humidity
    00:00 +22°C° 0.4 mm 0 mps 693 mmHg 98%
    01:00 +22°C° 0.4 mm 0 mps 692 mmHg 98%
    02:00 +22°C° 0.1 mm 0 mps 692 mmHg 98%
    03:00 +21°C° 0.1 mm 0 mps 692 mmHg 98%
    04:00 +21°C° 0.1 mm 0 mps 692 mmHg 98%
    05:00 +21°C° 0.1 mm 0 mps 692 mmHg 98%
    06:00 +22°C° 0.1 mm 0 mps 692 mmHg 98%
    07:00 +22°C° 0.1 mm 0 mps 693 mmHg 97%
    08:00 +23°C° 0.2 mm 0 mps 693 mmHg 91%
    09:00 +27°C° 0.2 mm 1 mps 694 mmHg 85%
    10:00 +28°C° 0.2 mm 1 mps 694 mmHg 79%
    11:00 +28°C° 1 mm 1 mps 694 mmHg 80%
    12:00 +29°C° 1 mm 1 mps 693 mmHg 81%
    13:00 +29°C° 1 mm 1 mps 692 mmHg 82%
    14:00 +29°C° 1.2 mm 1 mps 692 mmHg 84%
    15:00 +29°C° 1.2 mm 1 mps 691 mmHg 86%
    16:00 +28°C° 1.2 mm 1 mps 691 mmHg 88%
    17:00 +27°C° 0.6 mm 1 mps 691 mmHg 90%
    18:00 +26°C° 0.6 mm 1 mps 691 mmHg 92%
    19:00 +25°C° 0.6 mm 1 mps 692 mmHg 94%
    20:00 +25°C° 0.5 mm 1 mps 692 mmHg 95%
    21:00 +24°C° 0.5 mm 1 mps 693 mmHg 96%
    22:00 +24°C° 0.5 mm 1 mps 693 mmHg 97%
    23:00 +22°C° 0.9 mm 0 mps 693 mmHg 98%

    23 August, Thursday

    Time Temperature Precipitation Wind Pressure Humidity
    00:00 +22°C° 0.9 mm 0 mps 693 mmHg 98%
    01:00 +21°C° 0.9 mm 0 mps 693 mmHg 98%
    02:00 +21°C° 0.5 mm 0 mps 693 mmHg 98%
    03:00 +21°C° 0.5 mm 0 mps 692 mmHg 99%
    04:00 +21°C° 0.5 mm 0 mps 692 mmHg 99%
    05:00 +21°C° 0.3 mm 0 mps 693 mmHg 98%
    06:00 +21°C° 0.3 mm 0 mps 693 mmHg 98%
    07:00 +22°C° 0.3 mm 0 mps 694 mmHg 98%
    08:00 +22°C° 0.8 mm 0 mps 694 mmHg 97%
    09:00 +23°C° 0.8 mm 0 mps 694 mmHg 97%
    10:00 +24°C° 0.8 mm 0 mps 695 mmHg 96%
    11:00 +24°C° 1.2 mm 0 mps 694 mmHg 96%
    12:00 +24°C° 1.2 mm 0 mps 694 mmHg 95%
    13:00 +24°C° 1.2 mm 0 mps 693 mmHg 95%
    14:00 +24°C° 0.9 mm 0 mps 693 mmHg 95%
    15:00 +24°C° 0.9 mm 0 mps 693 mmHg 96%
    16:00 +24°C° 0.9 mm 0 mps 692 mmHg 96%
    17:00 +24°C° 0.5 mm 0 mps 693 mmHg 97%
    18:00 +23°C° 0.5 mm 0 mps 693 mmHg 97%
    19:00 +22°C° 0.5 mm 0 mps 693 mmHg 98%
    20:00 +22°C° 0.2 mm 0 mps 694 mmHg 98%
    21:00 +21°C° 0.2 mm 0 mps 694 mmHg 98%
    22:00 +21°C° 0.2 mm 0 mps 694 mmHg 98%
    23:00 +21°C° 0.4 mm 0 mps 694 mmHg 99%
    Show more